Probability
87 90 90 90 90 87 87 84 87 71 77 71 68 65 61 61 61 61 65 65 58 61 55 52 55 61 55 58 61 52 48 45 29 16 26 32 45 42 16 23 19 26 6
90 90 90 90 87 84 84 81 81 65 68 61 65 61 55 55 55 55 55 55 55 55 48 55 55 52 52 55 52 48 52 55 39 42 45 39 48 39 39 48 19 6 10
90 84 87 87 87 84 74 74 71 65 65 58 58 55 52 52 52 58 58 58 55 58 52 55 55 52 48 42 45 42 48 39 48 39 35 48 39 35 42 35 26 32 6
84 81 84 84 81 77 77 71 68 68 65 61 55 55 52 55 55 61 58 61 58 61 52 55 48 48 42 45 45 55 45 48 48 39 39 39 42 35 39 26 26 32 23
81 81 81 74 74 74 68 61 61 65 55 61 58 55 52 48 42 55 48 48 48 52 48 45 39 35 32 26 26 48 42 42 42 39 35 32 32 29 23 29 29 26 29
74 71 74 71 71 65 65 61 65 65 65 68 58 48 42 42 29 23 32 48 52 48 45 42 42 35 26 3 0 0 6 29 35 39 29 26 26 23 23 16 32 29 16
68 65 65 68 65 65 55 65 65 61 61 61 55 48 48 48 23 6 0 26 48 52 42 35 26 23 19 23 23 0 0 0 0 23 26 26 32 29 26 19 26 13 13
65 65 68 61 65 68 55 61 61 61 58 55 55 48 45 32 10 0 0 13 26 26 26 19 19 19 13 16 19 19 19 13 6 3 6 23 23 29 29 26 13 10 13
61 55 55 55 61 61 58 58 52 52 48 52 52 48 45 26 6 3 0 23 23 19 19 16 16 16 10 10 10 13 19 16 6 0 0 3 0 0 0 3 6 3 3
55 52 52 55 55 61 58 58 52 42 39 39 35 35 26 29 6 6 0 10 16 13 16 10 6 6 6 0 6 10 13 13 13 13 3 3 3 0 0 0 0 0 3
58 48 48 48 48 48 42 42 42 39 35 35 32 29 29 19 6 6 0 13 13 10 10 10 6 6 0 0 0 6 6 6 10 13 16 10 13 13 10 6 6 3 3
45 48 45 42 39 35 42 35 29 32 35 39 32 29 26 19 10 6 0 0 3 6 6 10 6 6 0 0 0 0 0 0 3 6 10 6 10 6 6 6 6 6 10
39 42 39 35 35 35 35 32 32 35 39 29 29 23 16 16 10 6 6 0 0 3 10 6 6 0 0 0 0 0 0 0 3 3 6 10 3 3 3 10 6 13 13
39 35 35 32 29 29 29 29 26 26 29 26 26 23 23 16 16 13 10 6 0 0 3 6 0 0 0 0 0 0 0 3 3 6 10 0 0 0 0 0 3 3 0
35 29 26 26 23 26 16 13 16 23 16 13 16 19 16 13 10 6 10 10 6 3 3 6 6 6 6 6 6 6 10 6 0 0 3 0 0 0 3 3 3 3 0
26 23 26 19 19 13 10 10 6 6 3 3 3 6 6 3 0 0 3 3 3 3 3 6 6 6 6 3 6 6 6 6 6 3 0 0 0 0 0 0 0 0 0
29 23 16 16 13 13 6 10 6 6 0 0 0 0 0 0 0 0 0 0 0 0 3 3 3 6 6 3 6 6 6 6 6 0 0 0 0 0 0 0 0 0 0
19 6 13 10 10 10 10 10 6 6 6 6 0 0 0 0 0 0 0 0 0 0 3 3 3 3 3 6 3 3 3 6 3 0 0 0 0 0 0 0 0 0 3
19 10 10 10 6 6 6 6 3 6 6 6 3 3 0 0 0 0 0 0 3 3 3 3 3 3 3 3 3 6 3 3 0 0 0 0 0 0 0 0 0 0 0
10 6 3 6 6 3 6 6 6 3 3 3 3 3 3 3 3 3 0 3 3 3 3 3 3 3 3 3 6 6 3 3 3 0 0 0 3 3 3 0 0 3 3
6 6 0 3 3 3 3 3 3 3 3 3 3 3 0 3 3 3 0 0 0 0 0 0 0 0 3 3 0 0 3 3 0 0 0 0 0 0 0 0 0 3 0
10 6 6 3 3 3 3 3 3 3 3 3 3 3 0 0 3 0 0 0 0 0 0 0 0 0 0 0 0 0 0 0 0 0 0 0 0 0 0 0 0 0 0
6 3 3 3 3 0 3 3 3 3 3 3 3 3 0 0 0 0 0 0 0 0 0 0 0 0 0 0 0 0 0 0 0 0 0 0 0 0 0 0 0 0 0
3 3 3 3 3 3 3 3 3 3 3 3 3 0 0 0 0 0 0 0 0 0 0 0 0 0 0 0 0 0 0 0 0 0 0 0 0 0 0 0 0 0 0
0 3 3 3 3 3 3 3 3 3 0 0 0 0 0 0 0 0 0 0 0 0 0 0 0 0 0 0 0 0 0 0 0 0 0 0 0 0 0 0 0 0 0
0 0 3 3 3 3 3 3 3 0 0 0 0 0 0 0 0 0 0 0 0 0 0 0 0 0 0 0 0 0 0 0 0 0 0 0 0 0 0 0 0 0 0
Height
5885 5885 5885 5884 5884 5883 5882 5882 5881 5881 5880 5881 5881 5881 5881 5881 5881 5881 5881 5881 5881 5881 5881 5881 5880 5880 5879 5878 5877 5876 5875 5874 5874 5873 5871 5870 5869 5868 5867 5866 5865 5864 5863
5882 5881 5881 5881 5880 5879 5879 5878 5878 5878 5877 5877 5877 5877 5877 5877 5877 5877 5877 5877 5877 5877 5877 5876 5876 5875 5874 5873 5872 5871 5870 5869 5868 5867 5866 5865 5864 5862 5861 5860 5859 5858 5857
5878 5878 5878 5877 5877 5876 5875 5875 5875 5875 5874 5874 5874 5874 5874 5874 5874 5874 5873 5873 5873 5873 5872 5871 5871 5870 5869 5868 5867 5865 5864 5863 5862 5861 5860 5859 5858 5856 5855 5854 5853 5851 5850
5874 5874 5874 5874 5873 5872 5872 5872 5871 5871 5871 5870 5870 5870 5870 5870 5870 5870 5869 5869 5869 5868 5867 5866 5865 5865 5863 5862 5861 5859 5858 5857 5856 5855 5854 5852 5851 5850 5849 5847 5846 5844 5843
5870 5870 5870 5869 5869 5869 5868 5868 5868 5868 5867 5867 5866 5866 5866 5866 5866 5865 5865 5865 5864 5863 5862 5861 5860 5859 5858 5856 5855 5853 5852 5850 5849 5848 5846 5845 5844 5843 5841 5840 5838 5837 5835
5866 5866 5866 5865 5865 5865 5864 5864 5864 5864 5864 5863 5863 5862 5862 5861 5861 5860 5860 5860 5859 5858 5857 5856 5854 5853 5851 5850 5848 5847 5845 5844 5843 5841 5839 5838 5837 5835 5833 5832 5830 5829 5827
5861 5861 5861 5861 5861 5861 5860 5860 5860 5860 5860 5859 5859 5858 5858 5857 5856 5856 5855 5855 5854 5853 5852 5850 5848 5847 5845 5844 5842 5841 5839 5837 5836 5834 5832 5831 5829 5828 5826 5824 5822 5820 5819
5857 5857 5857 5856 5856 5856 5856 5856 5856 5856 5856 5855 5855 5854 5854 5853 5852 5851 5850 5849 5848 5847 5846 5844 5842 5841 5839 5837 5835 5834 5832 5830 5828 5827 5825 5823 5821 5820 5818 5816 5814 5812 5810
5852 5852 5852 5852 5852 5852 5851 5851 5851 5851 5851 5851 5851 5850 5849 5848 5847 5846 5845 5844 5843 5842 5840 5838 5836 5835 5833 5831 5829 5827 5825 5823 5821 5819 5817 5815 5813 5811 5809 5807 5805 5803 5801
5848 5847 5847 5847 5847 5847 5847 5847 5847 5847 5847 5846 5846 5845 5844 5843 5842 5840 5839 5838 5837 5835 5834 5832 5830 5828 5826 5824 5822 5820 5818 5816 5813 5812 5810 5807 5805 5803 5800 5798 5796 5793 5791
5842 5842 5842 5842 5842 5842 5842 5842 5842 5842 5842 5841 5841 5840 5839 5838 5836 5835 5833 5832 5831 5829 5827 5825 5824 5822 5819 5817 5815 5813 5810 5808 5806 5804 5801 5799 5797 5794 5792 5789 5786 5783 5781
5836 5837 5836 5837 5837 5837 5837 5837 5837 5837 5837 5836 5835 5834 5833 5832 5831 5829 5828 5826 5824 5823 5821 5819 5817 5815 5813 5811 5808 5806 5803 5801 5798 5796 5793 5791 5788 5785 5783 5780 5777 5773 5770
5831 5831 5831 5831 5831 5831 5831 5832 5832 5832 5831 5831 5830 5829 5828 5826 5825 5824 5822 5820 5818 5816 5814 5812 5811 5809 5806 5804 5801 5798 5796 5793 5790 5788 5785 5782 5779 5776 5773 5770 5767 5763 5760
5825 5825 5825 5825 5825 5825 5825 5826 5826 5826 5825 5825 5824 5822 5821 5820 5819 5817 5816 5814 5812 5809 5807 5805 5803 5801 5799 5796 5794 5791 5788 5785 5782 5779 5776 5773 5770 5767 5764 5760 5757 5753 5749
5818 5819 5819 5819 5819 5819 5820 5820 5820 5819 5819 5818 5817 5816 5815 5813 5812 5810 5808 5807 5804 5802 5800 5798 5796 5793 5791 5788 5786 5783 5780 5778 5774 5771 5767 5764 5761 5757 5754 5750 5746 5742 5738
5812 5813 5813 5813 5814 5814 5814 5814 5813 5813 5812 5811 5810 5809 5808 5806 5804 5803 5801 5799 5797 5795 5792 5790 5788 5786 5783 5780 5778 5775 5772 5769 5766 5762 5758 5755 5751 5748 5744 5740 5736 5732 5728
5806 5807 5807 5807 5808 5808 5808 5807 5807 5806 5805 5804 5803 5802 5800 5799 5797 5795 5793 5791 5789 5787 5785 5782 5780 5777 5775 5772 5769 5766 5763 5760 5756 5753 5749 5745 5742 5738 5734 5730 5725 5721 5717
5800 5800 5801 5801 5801 5801 5801 5801 5800 5799 5798 5797 5796 5794 5792 5790 5789 5787 5785 5783 5781 5779 5776 5774 5771 5769 5766 5763 5760 5757 5754 5750 5747 5743 5740 5736 5732 5727 5723 5719 5715 5710 5706
5793 5794 5794 5794 5795 5795 5794 5794 5793 5792 5790 5789 5788 5786 5784 5782 5781 5779 5777 5775 5773 5770 5768 5765 5763 5760 5757 5754 5751 5747 5744 5740 5737 5733 5729 5725 5721 5717 5713 5709 5704 5700 5695
5787 5787 5787 5788 5788 5787 5787 5786 5785 5784 5783 5781 5779 5778 5776 5774 5773 5771 5769 5767 5764 5762 5760 5757 5754 5751 5748 5744 5741 5738 5734 5730 5726 5723 5719 5715 5711 5706 5702 5698 5693 5689 5684
5780 5781 5781 5781 5781 5780 5779 5779 5778 5777 5775 5774 5772 5770 5768 5767 5765 5763 5761 5758 5756 5753 5751 5748 5745 5742 5738 5735 5731 5728 5724 5720 5716 5712 5708 5704 5700 5696 5691 5687 5682 5677 5673
5774 5774 5774 5774 5774 5773 5773 5772 5770 5769 5768 5766 5764 5762 5761 5759 5757 5755 5752 5750 5747 5745 5742 5739 5735 5732 5729 5725 5721 5718 5714 5709 5705 5701 5697 5693 5689 5685 5680 5676 5671 5666 5662
5768 5768 5768 5768 5768 5767 5766 5765 5764 5762 5761 5759 5757 5756 5753 5751 5749 5746 5744 5741 5738 5735 5732 5729 5726 5722 5719 5715 5711 5708 5704 5699 5695 5690 5686 5682 5678 5674 5670 5665 5661 5656 5651
5763 5762 5762 5762 5761 5760 5759 5758 5757 5756 5754 5752 5750 5748 5746 5743 5741 5738 5735 5732 5730 5726 5723 5720 5716 5713 5709 5705 5702 5698 5693 5689 5684 5680 5676 5672 5668 5664 5659 5655 5651 5646 5641
5757 5757 5756 5756 5755 5754 5753 5752 5750 5749 5747 5745 5743 5741 5738 5736 5733 5730 5727 5724 5721 5717 5714 5710 5707 5703 5699 5695 5692 5687 5683 5679 5674 5670 5666 5662 5658 5654 5649 5645 5641 5636 5632
5751 5751 5750 5749 5748 5748 5746 5745 5744 5742 5740 5738 5736 5734 5731 5728 5725 5722 5719 5716 5712 5709 5705 5702 5698 5694 5690 5686 5682 5677 5673 5669 5665 5660 5656 5652 5648 5644 5639 5635 5631 5626 5622
Wind_Speed
14 13 13 14 15 15 14 14 14 13 13 13 13 13 13 13 13 13 13 14 14 15 16 17 17 18 18 19 19 19 20 20 19 19 20 21 21 21 20 21 21 21 22
15 15 14 14 14 15 15 14 13 13 13 13 13 13 14 14 14 15 15 15 16 17 18 19 19 19 20 20 20 21 22 22 21 22 22 22 22 23 23 23 23 23 23
15 15 15 15 15 15 14 14 14 14 14 14 14 14 14 15 15 15 15 16 17 18 19 19 20 20 20 21 21 22 23 23 23 23 24 25 24 24 24 25 25 25 25
16 16 16 16 15 15 15 14 14 14 14 14 14 14 14 15 15 16 16 17 17 18 19 20 20 21 22 22 23 23 23 23 24 24 25 25 26 27 27 27 28 28 27
17 17 17 16 16 16 15 15 15 15 15 15 15 15 14 15 16 17 17 17 18 19 20 20 21 21 23 24 24 24 24 25 25 25 25 25 26 27 28 29 29 30 30
17 17 17 17 17 17 16 16 16 16 16 16 15 15 15 16 17 17 18 19 20 21 21 22 23 23 24 23 24 25 25 26 26 26 26 27 27 29 30 30 30 31 31
18 17 17 17 17 17 16 16 16 16 16 16 16 16 15 16 17 18 19 20 20 21 21 22 23 24 24 24 25 26 27 27 26 27 27 28 29 30 30 30 32 32 31
18 17 17 18 17 17 16 16 16 15 16 16 17 17 17 17 18 19 21 22 21 21 21 22 23 24 24 25 26 26 26 26 27 28 28 29 29 30 30 31 32 32 32
19 19 19 19 18 17 17 17 16 16 16 17 17 18 18 19 20 21 21 21 21 22 22 23 23 24 24 25 25 25 26 27 28 28 28 29 30 31 32 33 33 33 33
20 21 21 20 19 18 18 18 17 17 18 18 19 20 20 20 20 20 21 22 23 23 24 24 24 24 24 25 25 26 27 28 28 28 29 30 30 31 32 34 34 35 36
22 22 21 21 20 19 19 19 19 19 19 19 19 19 20 20 20 21 22 22 23 23 24 25 25 26 26 26 26 27 27 28 27 28 30 31 32 32 33 33 34 36 37
22 22 22 21 21 20 20 19 20 20 21 21 21 20 20 21 21 22 22 23 24 24 25 26 25 25 26 27 27 28 28 29 30 30 31 32 32 33 34 35 36 36 37
23 22 22 22 21 21 21 20 21 22 22 22 22 22 22 23 23 23 24 24 25 25 26 26 26 26 27 27 27 28 29 30 31 31 31 32 33 33 34 36 37 37 37
22 22 22 21 21 21 21 22 22 23 23 23 23 23 23 23 24 24 25 25 26 26 26 27 26 27 27 27 28 28 29 29 30 31 32 32 33 34 35 36 36 37 37
22 21 21 21 22 21 21 22 22 23 24 24 24 24 24 25 25 26 26 27 27 27 28 28 28 28 28 29 30 30 30 31 32 32 33 34 35 36 36 36 37 38 38
22 22 21 21 21 21 22 23 24 24 25 25 25 26 26 26 27 27 28 28 28 28 28 28 29 29 30 30 30 31 31 32 33 34 34 35 35 36 36 36 37 38 39
24 23 23 22 22 22 22 23 24 25 25 26 26 27 27 28 28 28 27 27 28 29 29 29 30 30 31 31 31 32 32 33 34 35 35 36 37 37 37 37 38 39 39
24 24 23 23 23 23 23 23 24 25 26 26 27 28 28 28 28 28 28 28 29 29 30 30 30 31 31 32 32 33 34 34 35 36 36 37 37 37 37 38 39 39 40
24 24 24 23 23 23 23 24 25 26 27 27 28 28 28 28 28 28 28 29 29 30 30 30 31 32 32 33 34 35 36 36 36 36 37 38 38 38 38 38 39 39 39
22 22 23 23 23 23 23 24 25 25 26 27 27 27 28 28 28 28 29 29 29 30 31 32 33 33 34 34 35 35 36 36 36 37 37 37 38 38 39 39 39 39 39
22 22 22 22 22 23 23 24 25 26 27 27 26 26 27 27 28 28 28 29 30 31 31 32 33 34 35 35 35 36 36 36 36 37 37 37 38 39 39 39 40 40 39
21 21 21 21 21 22 22 23 23 24 25 25 24 25 25 26 27 28 29 30 31 31 32 33 34 34 35 35 35 35 35 36 36 37 37 38 39 39 39 39 39 38 38
20 20 20 21 21 22 23 23 23 23 23 24 25 25 26 27 28 29 30 31 31 32 32 33 33 34 34 34 34 35 36 36 37 37 37 37 37 37 37 37 37 37 36
18 19 20 21 21 22 22 22 22 22 23 24 24 25 26 27 28 29 29 30 30 31 32 33 33 34 34 34 35 36 37 37 36 37 36 36 35 35 35 35 35 35 35
18 19 20 20 20 21 21 21 21 22 23 23 24 25 26 27 27 28 28 29 30 31 32 32 32 32 33 34 35 35 36 36 36 35 35 35 35 35 35 34 35 35 34
19 19 19 19 20 20 21 21 22 23 24 24 25 26 27 27 28 28 29 29 30 30 31 32 32 33 33 34 35 35 36 36 35 35 34 34 34 34 34 34 33 33 33
Wind_Direction
273 276 280 284 281 280 280 282 282 280 274 269 267 266 267 271 271 271 271 273 274 273 275 277 279 280 281 283 283 284 285 284 281 280 281 282 282 282 282 281 282 282 283
270 273 278 281 282 280 279 276 277 278 276 272 268 267 269 271 271 272 272 273 274 274 276 277 279 282 283 284 284 284 284 283 282 280 280 282 282 281 281 281 282 282 284
270 271 273 276 279 279 279 274 274 278 276 273 270 270 272 272 272 273 274 275 276 278 279 278 279 281 285 287 286 285 283 282 282 280 279 280 281 281 282 282 282 283 284
273 273 273 274 274 275 274 272 273 275 274 272 272 273 274 273 273 274 275 277 279 282 283 281 280 282 284 286 286 285 284 283 284 283 281 280 281 281 282 283 282 283 284
272 271 272 273 275 275 272 271 271 273 274 274 274 274 276 275 275 275 276 279 280 283 284 284 284 284 286 286 286 285 284 285 285 284 284 282 282 282 282 283 283 283 283
270 270 270 272 275 274 272 271 272 273 273 274 274 274 277 279 279 278 277 278 280 282 284 285 286 286 286 287 288 287 286 285 285 284 283 283 284 283 283 282 283 283 284
271 269 269 272 273 274 274 270 269 272 270 270 272 275 281 283 282 280 278 279 280 282 284 286 288 288 286 287 289 290 289 287 285 284 283 283 282 283 283 283 284 283 284
270 268 269 271 274 273 270 268 268 270 271 272 274 274 278 282 283 283 281 280 282 283 284 288 289 290 289 289 290 290 292 290 286 286 286 286 285 283 283 284 284 285 284
267 267 268 270 270 270 267 266 267 269 272 274 275 277 281 283 282 282 282 281 282 284 287 290 292 292 291 291 290 290 290 289 287 286 288 289 287 285 284 285 285 285 284
269 269 268 268 268 266 264 265 266 270 273 275 277 281 282 283 283 283 283 285 286 286 287 288 290 291 290 290 290 291 291 290 287 287 288 288 288 286 285 286 287 286 286
269 271 269 265 266 264 263 263 266 270 273 275 278 281 283 284 287 288 287 286 287 288 289 288 289 289 288 290 291 292 292 291 290 290 290 290 290 289 288 288 288 288 288
266 268 269 269 266 262 262 263 265 268 271 274 277 280 282 283 286 289 290 289 289 288 288 288 289 289 289 291 293 293 292 291 291 291 292 292 292 292 291 291 292 292 290
265 267 269 268 266 265 265 265 266 270 273 275 279 281 281 283 285 289 291 290 289 289 288 288 289 291 292 292 293 293 293 293 293 293 294 293 293 293 293 293 292 292 291
264 264 266 265 266 267 264 264 267 272 275 277 280 282 283 284 286 289 290 290 290 289 288 288 289 291 292 293 293 293 294 295 295 296 297 296 296 296 296 296 294 294 294
261 261 262 262 265 265 264 266 269 272 275 278 280 282 284 286 287 288 289 289 289 289 289 289 290 292 293 294 294 294 294 295 296 297 298 298 297 297 297 296 296 295 295
257 258 260 263 265 265 266 269 270 273 275 277 280 283 285 285 285 286 288 289 289 289 289 290 291 292 293 293 293 294 295 296 297 298 299 299 298 297 297 297 297 297 296
258 259 262 264 265 268 268 270 272 275 276 277 280 283 285 285 285 286 287 288 289 288 289 291 292 292 292 294 294 296 297 298 298 299 299 299 298 298 298 298 298 298 298
259 258 259 262 265 267 269 272 275 276 277 278 281 282 284 284 285 285 286 287 289 290 291 292 293 293 294 295 296 297 298 298 298 298 299 299 299 299 299 300 301 300 301
258 257 259 263 265 267 271 274 276 277 279 280 281 282 283 283 284 284 285 287 290 292 293 294 295 296 296 296 297 297 297 297 297 298 298 299 299 299 300 301 301 301 301
258 259 262 264 266 269 274 276 278 280 282 283 283 284 285 284 284 285 286 288 290 292 293 294 295 296 297 298 298 298 298 298 299 299 300 300 300 299 300 301 301 302 303
257 260 264 265 268 271 275 279 280 283 285 285 286 287 287 287 287 287 288 289 291 292 294 295 296 296 297 298 299 299 300 300 300 300 299 299 299 300 300 301 302 302 303
258 262 264 266 270 272 276 280 282 285 286 287 288 288 289 290 290 290 291 291 293 293 294 296 297 298 299 299 299 299 300 301 300 300 299 299 300 300 300 301 303 305 306
261 262 265 268 271 275 278 281 283 285 286 287 288 290 291 291 291 291 292 292 293 294 295 297 298 299 299 300 299 300 301 302 301 301 301 300 299 300 301 303 304 306 307
264 267 269 272 274 278 280 282 283 285 287 289 290 291 292 293 293 294 294 294 295 295 296 297 298 299 300 300 300 301 302 302 302 302 302 302 302 303 304 304 306 307 307
269 271 273 274 276 279 281 283 284 286 289 292 293 294 294 295 296 296 296 296 297 297 298 299 300 300 301 302 303 304 304 304 304 304 304 304 304 305 305 305 306 307 307
271 273 274 275 277 279 282 284 286 289 291 293 293 294 295 296 297 298 298 299 299 299 300 301 302 303 304 304 305 306 306 305 305 305 304 304 305 305 305 305 306 307 307